Tracking 19832 objects as of 24-Aug-2019
HD Live streaming from Space Station
objects crossing your sky now

CZ-2D DEB

Track CZ-2D DEB now!
10-day predictions


NORAD ID: 43037
Int'l Code: 2017-077D
Perigee: 418.0 km
Apogee: 481.2 km
Inclination: 97.5 °
Period: 93.4 minutes
Semi major axis: 6820 km
RCS: Unknown
Launch date: December 3, 2017
Source: People's Republic of China (PRC)
Launch site: Jiuquan Satellite Launch Center, China (JSC)

Note: This is SATELLITE DEBRIS
aabbcc
Your satellite tracking list
Your tracking list is empty




NASA's NSSDC Master Catalog

Two Line Element Set (TLE):
1 43037U 17077D   19235.83191716 +.00003237 +00000-0 +77228-4 0  9990
2 43037 097.5267 335.2503 0046362 229.1795 130.5427 15.41242236096492
Source of the keplerian elements: AFSPC